This demonstration page uses our WeatherBlox Daily Observations layout. Learn more.

Left ArrowRight Arrow

40.92945, -100.16068

Hourly Observations for November 10, 2019

Temp ( °F °C ) Dew Point ( °F °C ) Humidity (%) Winds ( mph kmh ) Pressure ( in mb ) Visibility ( mi km ) Precip ( " mm )
12:15 am 00:15 Clear 36 2 26 -3.4 68 68 W 5 7 30.07 1018 10 16.0934 0 0
12:35 am 00:35 Clear 36 2 26 -3.1 69 69 W 8 13 30.07 1018 10 16.0934 0 0
12:55 am 00:55 Clear 33 0.8 26 -3.2 75 75 W 8 13 30.08 1019 10 16.0934 0 0
1:15 am 01:15 Clear 33 0.3 26 -3.4 76 76 WNW 7 11 30.08 1019 10 16.0934 0 0
1:35 am 01:35 Clear 32 0.1 26 -3.6 76 76 WNW 7 11 30.08 1018 10 16.0934 0 0
1:55 am 01:55 Clear 32 0.1 26 -3.2 79 79 WNW 6 9 30.08 1018 10 16.0934 0 0
2:15 am 02:15 Clear 33 0.5 27 -3 78 78 WNW 9 15 30.07 1018 10 16.0934 0 0
2:35 am 02:35 Clear 32 0.1 26 -3.3 78 78 NW 10 17 30.09 1019 10 16.0934 0 0
2:55 am 02:55 Clear 32 0 26 -3.6 77 77 WNW 8 13 30.09 1019 10 16.0934 0 0
3:15 am 03:15 Clear 34 0.9 27 -3 75 75 WNW 10 17 30.08 1019 10 16.0934 0 0
3:35 am 03:35 Clear 33 0.3 26 -3.1 78 78 WNW 7 11 30.09 1019 10 16.0934 0 0
3:55 am 03:55 Clear 32 0.1 26 -3.1 79 79 WNW 7 11 30.11 1020 10 16.0934 0 0
4:15 am 04:15 Clear 31 -0.3 26 -3.4 80 80 W 9 15 30.11 1020 10 16.0934 0 0
4:35 am 04:35 Clear 31 -0.3 26 -3.4 80 80 WNW 9 15 30.11 1020 10 16.0934 0 0
4:55 am 04:55 Clear 31 -0.5 26 -3.4 81 81 NW 10 17 30.13 1020 10 16.0934 0 0
5:15 am 05:15 Clear 31 -0.8 25 -3.9 80 80 NNW 10 17 30.13 1020 10 16.0934 0 0
5:35 am 05:35 Clear 30 -1.2 25 -3.7 83 83 W 6 9 30.12 1020 10 16.0934 0 0
5:55 am 05:55 Clear 28 -2.1 25 -3.9 88 88 NW 7 11 30.15 1021 10 16.0934 0 0
6:15 am 06:15 Clear 28 -2.5 24 -4.3 88 88 WNW 5 7 30.15 1021 10 16.0934 0 0
6:35 am 06:35 Clear 27 -2.7 24 -4.3 89 89 NW 6 9 30.15 1021 10 16.0934 0 0
6:55 am 06:55 Clear 27 -2.8 24 -4.5 88 88 N 8 13 30.17 1022 10 16.0934 0 0
7:15 am 07:15 Clear 32 0 28 -2 87 87 NNE 8 13 30.15 1021 10 16.0934 0 0
7:35 am 07:35 Sunny 33 0.5 30 -1.1 89 89 NE 7 11 30.14 1021 10 16.0934 0 0
7:55 am 07:55 Sunny 33 0.8 31 -0.7 90 90 NNE 8 13 30.15 1021 10 16.0934 0 0
8:15 am 08:15 Sunny 34 1.2 32 -0.1 91 91 NE 8 13 30.15 1021 10 16.0934 0 0
8:35 am 08:35 Sunny 36 2 32 0 87 87 ENE 9 15 30.15 1021 10 16.0934 0 0
8:55 am 08:55 Sunny 37 2.5 33 0.5 87 87 ENE 10 17 30.15 1021 10 16.0934 0 0
9:15 am 09:15 Partly Cloudy 37 2.6 33 0.4 86 86 ENE 13 20 30.16 1021 10 16.0934 0 0
9:35 am 09:35 Cloudy 37 2.5 33 0.4 86 86 NE 10 17 30.15 1021 10 16.0934 0 0
9:55 am 09:55 Cloudy 38 3.2 33 0.5 83 83 ENE 10 17 30.15 1021 10 16.0934 0 0
10:15 am 10:15 Partly Cloudy 39 3.9 33 0.7 80 80 NE 10 17 30.14 1021 10 16.0934 0 0
10:35 am 10:35 Sunny 40 4.5 33 0.8 77 77 ENE 12 19 30.12 1020 10 16.0934 0 0
10:55 am 10:55 Sunny 42 5.3 34 1 74 74 E 13 20 30.12 1020 10 16.0934 0 0
11:15 am 11:15 Sunny 43 6.1 34 1.1 71 71 ENE 12 19 30.1 1019 10 16.0934 0 0
11:35 am 11:35 Sunny 44 6.4 34 1.1 69 69 E 10 17 30.09 1019 10 16.0934 0 0
11:55 am 11:55 Sunny 45 7.1 34 1.2 66 66 E 9 15 30.09 1019 10 16.0934 0 0
12:15 pm 12:15 Sunny 46 7.9 35 1.4 64 64 ENE 9 15 30.08 1019 10 16.0934 0 0
12:35 pm 12:35 Sunny 47 8.2 35 1.5 63 63 ENE 8 13 30.07 1018 10 16.0934 0 0
12:55 pm 12:55 Sunny 46 8 34 1.2 63 63 ENE 8 13 30.07 1018 10 16.0934 0 0
1:15 pm 13:15 Sunny 47 8.1 34 1.3 63 63 NE 10 17 30.06 1018 10 16.0934 0 0
1:35 pm 13:35 Sunny 46 7.7 34 1.1 63 63 E 12 19 30.06 1018 10 16.0934 0 0
1:55 pm 13:55 Sunny 46 7.5 34 1 64 64 NE 13 20 30.06 1018 10 16.0934 0 0
2:15 pm 14:15 Sunny 44 6.5 33 0.8 67 67 NE 15 24 30.06 1018 10 16.0934 0 0
2:35 pm 14:35 Sunny 43 6.2 33 0.7 68 68 NE 13 20 30.07 1018 10 16.0934 0 0
2:55 pm 14:55 Sunny 43 6 33 0.7 69 69 NE 9 15 30.07 1018 10 16.0934 0 0
3:15 pm 15:15 Sunny 43 6.3 33 0.7 68 68 NE 9 15 30.07 1018 10 16.0934 0 0
3:35 pm 15:35 Sunny 44 6.8 33 0.7 65 65 ENE 13 20 30.06 1018 10 16.0934 0 0
3:55 pm 15:55 Sunny 44 6.9 33 0.6 65 65 NE 14 22 30.05 1018 10 16.0934 0 0
4:15 pm 16:15 Sunny 44 6.5 33 0.5 66 66 NE 14 22 30.06 1018 10 16.0934 0 0
4:35 pm 16:35 Sunny 43 5.9 32 0 66 66 ENE 16 26 30.08 1019 10 16.0934 0 0
4:55 pm 16:55 Sunny 41 5 32 0 70 70 NE 14 22 30.1 1019 10 16.0934 0 0
5:15 pm 17:15 Sunny 40 4.2 32 -0.1 74 74 NE 13 20 30.12 1020 10 16.0934 0 0
5:35 pm 17:35 Mostly Cloudy 39 4 32 0 75 75 NE 20 31 30.14 1021 10 16.0934 0 0
5:55 pm 17:55 Cloudy 37 2.6 32 0 83 83 NE 23 37 30.17 1022 10 16.0934 0 0
6:15 pm 18:15 Cloudy 35 1.4 32 0 91 91 NE 22 35 30.19 1022 7 11.26538 0 0
6:35 pm 18:35 Cloudy with Mist and Fog 33 0.6 31 -0.3 94 94 NNE 22 35 30.22 1023 5 8.0467 0 0
6:55 pm 18:55 Cloudy with Mist and Fog 31 -0.8 29 -1.6 94 94 NE 24 39 30.26 1025 3 4.82802 0 0
7:15 pm 19:15 Cloudy with Mist and Fog 28 -2.1 27 -2.9 94 94 NE 23 37 30.3 1026 5 8.0467 0 0
7:35 pm 19:35 Cloudy 28 -2.5 26 -3.6 92 92 NE 18 30 30.31 1027 10 16.0934 0 0
7:55 pm 19:55 Cloudy 26 -3.1 25 -4.1 93 93 NNE 21 33 30.33 1027 10 16.0934 0 0
8:15 pm 20:15 Cloudy 26 -3.5 24 -4.5 93 93 NE 21 33 30.35 1028 10 16.0934 0 0
8:35 pm 20:35 Cloudy 25 -3.9 23 -4.9 93 93 NNE 14 22 30.38 1029 10 16.0934 0 0
8:55 pm 20:55 Cloudy 24 -4.2 23 -5.1 94 94 NNE 18 30 30.38 1029 10 16.0934 0 0
9:15 pm 21:15 Cloudy 24 -4.2 22 -5.5 91 91 NNE 18 30 30.4 1029 10 16.0934 0 0
9:35 pm 21:35 Cloudy 24 -4.3 21 -6 88 88 NNE 18 30 30.41 1030 10 16.0934 0 0
9:55 pm 21:55 Cloudy 24 -4.5 22 -5.8 91 91 NNE 16 26 30.44 1031 10 16.0934 0 0
10:15 pm 22:15 Cloudy 24 -4.7 21 -6.3 89 89 N 22 35 30.46 1031 10 16.0934 0 0
10:35 pm 22:35 Cloudy 23 -5.1 19 -7.2 85 85 NNE 21 33 30.47 1032 10 16.0934 0 0
10:55 pm 22:55 Cloudy 23 -5.2 19 -7.2 86 86 N 21 33 30.49 1033 10 16.0934 0 0
11:15 pm 23:15 Cloudy 22 -5.6 17 -8.2 82 82 N 18 30 30.52 1033 10 16.0934 0 0
11:35 pm 23:35 Cloudy 21 -5.9 16 -8.7 81 81 N 21 33 30.53 1034 10 16.0934 0 0
11:55 pm 23:55 Cloudy 21 -6.1 16 -9.1 80 80 N 22 35 30.55 1035 10 16.0934 0 0

Powered by AerisWeather